Вернуться в каталог

GAOFEN 7

АктивенНаукаSSO
NORAD 44703·PAYLOAD·🇨🇳 China

Запущен Nov 3, 2019 с Taiyuan Satellite Launch Center

Loading…

Ближайшие Пролёты (ближайшие 24 часа)

TLE

СвежийSource: Space-Track

Эпоха: Sep 14, 2026, 14:15 UTC

1 44703U 19072A   26257.59376359  .00003191  00000-0  14520-3 0  9995
2 44703  97.5628 318.6159 0020113  95.1822 265.1709 15.21282169381238

Отслеживайте GAOFEN 7 в реальном времени с AllMySat

Download on the App Store